Flag for Germany Weather past 2 weeks in Wiesbaden, Hesse, Germany

37 °F

Light rain. Mostly cloudy.

Feels Like: 37 °F
Forecast: 34 / 41 °F
Wind: 2 mph from Northeast

Location: Wiesbaden Airport

Current Time: Nov 25, 2015 at 8:07:39 PM

Latest Report: Nov 25, 2015 at 6:58 PM

Visibility: N/A

Pressure: 29.75 "Hg

Humidity: 100%

Dew point: 37 °F

Location of WiesbadenLocation

Historic Weather in Wiesbaden — Graph


Wiesbaden temperature yesterday

Maximum temperature yesterday: 37 °F (at 3:58 PM)
Minimum temperature yesterday: 27 °F (at 4:58 AM)
Average temperature yesterday: 33 °F

Past Weeks' High & Low Weather Summary

High60 °F (Nov 15, 1:58 PM)100% (Nov 12, 10:58 PM)30.38 "Hg (Nov 12, 10:58 PM)
Low27 °F (Nov 24, 4:58 AM)62% (Nov 11, 2:58 PM)29.40 "Hg (Nov 21, 1:01 PM)
Average46 °F87%30.02 "Hg
* Reported Nov 10 6:58 PM — Nov 25 6:58 PM, Wiesbaden, Weather by CustomWeather, © 2015

Note: Actual official high and low records may vary slightly from our data, if they occured in-between our weather recording intervals... More about our weather records


Wiesbaden weather history for previous 24 hours

Time TempWeatherWind HumidityBarometerVisibility
6:58 PM
Wed, Nov 25
38 °FLight rain. Mostly cloudy.2 mph100%29.75 "HgN/A
5:58 PM38 °FFog.No wind98%29.74 "Hg4 mi
4:58 PM40 °FOvercast.2 mph99%29.72 "HgN/A
3:59 PM41 °FBroken clouds.2 mph100%29.70 "HgN/A
2:58 PM42 °FMostly cloudy.1 mph92%29.72 "HgN/A
1:58 PM38 °FOvercast.2 mph99%29.74 "HgN/A
12:58 PM37 °FFog.No wind99%29.75 "Hg6 mi
11:59 AM36 °FFog.No wind100%29.75 "Hg4 mi
11:58 AM36 °FFog.No wind100%29.78 "Hg4 mi
10:58 AM36 °FFog.No wind100%29.79 "Hg4 mi
9:59 AM34 °FFog.5 mph100%29.80 "Hg4 mi
8:58 AM34 °FFog.6 mph100%29.80 "Hg4 mi
7:58 AM34 °FFog.5 mph100%29.80 "Hg4 mi
6:58 AM34 °FMostly cloudy.6 mph100%29.80 "HgN/A
6:01 AM32 °FIce fog.5 mph100%29.77 "Hg3 mi
5:53 AM32 °FLight snow. Ice fog.6 mph100%29.77 "Hg3 mi
5:01 AM32 °FLight rain. Ice fog.7 mph100%29.78 "Hg2 mi
3:58 AM33 °FLight freezing rain. Fog.3 mph100%29.82 "Hg4 mi
2:59 AM32 °FLight snow. Ice fog.7 mph100%29.81 "Hg5 mi
2:58 AM33 °FLight freezing rain. Fog.7 mph100%29.84 "Hg5 mi
1:58 AM32 °FLight snow. Ice fog.6 mph100%29.85 "Hg3 mi
12:58 AM32 °FLight snow. Ice fog.7 mph100%29.85 "Hg2 mi
11:59 PM
Tue, Nov 24
32 °FLight snow. Ice fog.6 mph100%29.87 "Hg3 mi
11:58 PM32 °FLight snow. Ice fog.7 mph100%29.87 "Hg3 mi
11:01 PM32 °FLight snow. Ice fog.7 mph100%29.89 "Hg3 mi
9:58 PM34 °FLight snow. Fog.8 mph100%29.95 "Hg5 mi
8:58 PM34 °FLight snow. Overcast.7 mph97%29.97 "HgN/A
8:04 PM36 °FClear.8 mph87%29.97 "HgN/A
Weather by CustomWeather, © 2015

See weather overviewHow to use our weather pages